TimeCST,TemperatureF,Dew PointF,Humidity,Sea Level PressureIn,VisibilityMPH,Wind Direction,Wind SpeedMPH,Gust SpeedMPH,PrecipitationIn,Events,Conditions,WindDirDegrees,DateUTC
12:52 AM,-4.0,-13.0,65,30.27,10.0,ESE,4.6,-,N/A,,Clear,110,2014-01-29 06:52:00
1:52 AM,-4.0,-13.0,65,30.25,10.0,ESE,5.8,-,N/A,,Clear,110,2014-01-29 07:52:00
2:52 AM,-2.9,-11.9,65,30.23,10.0,East,6.9,-,N/A,,Clear,90,2014-01-29 08:52:00
3:52 AM,-2.9,-11.0,68,30.21,10.0,East,4.6,-,N/A,,Clear,100,2014-01-29 09:52:00
4:52 AM,-2.9,-11.0,68,30.17,10.0,East,8.1,-,N/A,,Clear,100,2014-01-29 10:52:00
5:52 AM,-0.9,-9.9,66,30.15,10.0,East,8.1,-,N/A,,Clear,100,2014-01-29 11:52:00
6:52 AM,-4.0,-11.0,72,30.13,10.0,ESE,9.2,-,N/A,,Clear,110,2014-01-29 12:52:00
7:52 AM,-2.9,-9.9,72,30.10,10.0,ESE,10.4,-,N/A,,Clear,110,2014-01-29 13:52:00
8:52 AM,3.0,-5.1,69,30.08,10.0,ESE,9.2,-,N/A,,Clear,120,2014-01-29 14:52:00
9:52 AM,12.9,-0.9,54,30.05,10.0,SE,11.5,-,N/A,,Clear,140,2014-01-29 15:52:00
10:52 AM,26.1,5.0,41,30.02,10.0,SSE,11.5,-,N/A,,Clear,160,2014-01-29 16:52:00
11:52 AM,34.0,6.1,31,29.97,10.0,SSW,21.9,-,N/A,,Clear,200,2014-01-29 17:52:00
12:52 PM,37.9,6.1,27,29.90,10.0,SSW,21.9,32.2,N/A,,Clear,200,2014-01-29 18:52:00
1:52 PM,45.0,7.0,21,29.83,10.0,SSW,21.9,32.2,N/A,,Clear,210,2014-01-29 19:52:00
2:52 PM,48.0,7.0,19,29.79,10.0,SW,21.9,32.2,N/A,,Clear,220,2014-01-29 20:52:00
3:52 PM,48.9,7.0,18,29.75,10.0,SSW,23.0,34.5,N/A,,Clear,210,2014-01-29 21:52:00
4:52 PM,46.9,8.1,21,29.74,10.0,SSW,20.7,32.2,N/A,,Clear,200,2014-01-29 22:52:00
5:52 PM,43.0,8.1,24,29.72,10.0,SSW,18.4,-,N/A,,Clear,200,2014-01-29 23:52:00
6:52 PM,41.0,8.1,26,29.71,10.0,South,18.4,-,N/A,,Clear,190,2014-01-30 00:52:00
7:52 PM,39.9,10.0,29,29.69,10.0,South,16.1,-,N/A,,Clear,180,2014-01-30 01:52:00
8:52 PM,37.9,10.9,33,29.65,10.0,South,13.8,-,N/A,,Clear,180,2014-01-30 02:52:00
9:52 PM,39.0,12.0,33,29.62,10.0,SSW,21.9,33.4,N/A,,Clear,200,2014-01-30 03:52:00
10:52 PM,37.9,12.0,35,29.57,10.0,SSW,20.7,28.8,N/A,,Clear,210,2014-01-30 04:52:00
11:52 PM,39.0,14.0,36,29.54,10.0,South,11.5,-,N/A,,Clear,170,2014-01-30 05:52:00